星链-32278 (STARLINK-32278)

导读 | 星芒AI

STARLINK-32278 是 SpaceX Starlink 卫星互联网项目中的第 32278 颗卫星。该卫星属于 Starlink 群体部署计划的一部分,旨在通过低地球轨道卫星提供全球高速互联网服务。它通常运行在约 550 公里的高度,具备先进通信技术,支持高速、低延迟的网络连接。该卫星的发射有助于扩展 Starlink 在全球范围内的覆盖能力,特别是在偏远和网络基础设施薄弱的地区。

基本信息
目录编号:
60356
目录名称:
STARLINK-32278
国际标识:
2024-138B
轨道中心:
EARTH
卫星名称:
星链-32278 (STARLINK-32278)
卫星全名:
星链-32278 (STARLINK-32278)
卫星状态:
在轨 (已飞行503 天)
发射日期:
2024-08-04 UTC
国别 :
美国 (US)
星等 :
--
轨道信息
数据来源 国际轨道数据
星历时间: 2025-12-20T06:42:02+0800
8小时前
查看轨道信息
半长轴: 6853.374km
偏心率: 0.0001441
轨道倾角: 53.159°
近地点辐角 94.873°
升交点赤经 320.339°
平近点角 265.244°
近地点: 474.249km
远地点: 476.225km
周期: 94.106分钟
每日圈数: 15.301928
详细信息
卫星平台:
Starlink v2.0 mini
运营商:
太空探索技术公司
运营商所在国:
美国
制造商(研发单位):
太空探索技术公司
制造商所在国:
美国
使用方式:
暂无
卫星简介
星链(Starlink)计划是由太空探索技术公司(SpaceX)提出的一个巨型低轨卫星互联网星座项目,计划在2019年至2024年间在太空搭建由约1.2万颗卫星组成的“星链”网络,其中1584颗将部署在地球上空550千米处的近地轨道,并从2020年开始工作。该卫星仍在工作。
2D轨道图
3D轨道图
轨道高度分析图
轨道倾角分析图
轨道综合分析图
查看轨道综合分析图